CZ-6A DEB, 61419

Orbit data source: Space-Track

CZ-6A DEB, 61419 is space debris in LEO originally from a launch on Tue, 06 Aug 2024 UTC launched from the Taiyaun Space Center, China (TSC). Debris objects in space refer to the collection of defunct objects orbiting the Earth. Examples of debris include non-operational satellites, rocket bodies, and fragments generated from explosions, collisions, or faulty payload assembly.

Loading next visibility...
Identifier
61419, 2024-140YL
Orbit
LEO
Country
Flag of CNCN / PRC
Related business
Manufacturer
SAST
Mission
Spacecraft
Bus & Motor
Unknown
Mass
Unknown
Launch date (UTC)
2024-08-06 (2 years ago)
Launch vehicle
Unknown
Launch site
Taiyaun Space Center, China (TSC)
Object type
Payload
Rocket body
Debris
Shape & HBR
Unknown shape, 0.1 m
Radar Cross Section
Small (<0.1 m²)

Expand to show TLE details & history
Last TLE update: 11 hours ago

TLE from 11 hours ago
0 CZ-6A DEB
1 61419U 24140YL  26130.13246937  .00004418  00000-0  56546-3 0  9995
2 61419  88.9708 270.9839 0104719 339.1247  20.5712 14.77333727 90147
Epoch: 2026-05-10T03:10Z
TLE epoch observation values (Epoch: 2026-05-10T03:10:45.353Z)
Latitude
-0.00005°
Longitude
-4.64501°
Altitude
572.184 km
Speed
7.612 km/s
True Right ascension
18h 03m 56s
True Declination
0° 00' 00"
Sunlit
Object was in full shadow at epoch
Visualization orbit readout
Latitude
Unknown
Longitude
Unknown
Altitude
Unknown
Speed
Unknown
Apparent Right ascension
Unknown
Apparent Declination
Unknown
Sunlit
N/A
Visualization observer readout
Local Sidereal Time
22:11:11
Azimuth
Unknown
Elevation
Unknown
Doppler factor
Unknown
Orbital elements
Apogee altitude
708.059 km
Perigee altitude
561.185 km
Semi-major axis
7,012.759 km
Eccentricity
0.01047
Inclination
88.9708°
RAAN
270.9839°
Arg. of periapsis
339.1247°
True anomaly
20.99807°
Mean anomaly
20.5712°
Eccentric anomaly
20.78411°
Mean motion
3.69581 °/min
Orbital period
97.41 mins
BSTAR
0.00056546
Loading maneuver chart data...
Computing Atmospheric mass density...
Loading historical data...
Loading historical data...
Loading historical data...
Loading historical data...
Loading historical data...
Loading historical data...
Loading historical data...

Documentation

Showing up to 5 results
|